When you browse on this site, cookies collect data to enhance your experience and personalize the content and advertising you see.
Visit our Privacy Policy to learn more. By continuing to use the site, you agree to this use of cookies and data.
  • In Lithuania
  • List of Countries
  • For 7 days
  • Water Temperature
  • Weather Map
  • Weather Widgets
  • user-avatar
    Login

    Hourly Weather Yerevan

    Today, 31 May, Sunday

    Time Temperature Precipitation Wind Pressure Humidity
    00:00 +20°C° 0 mm 2 mps 689 mmHg 35%
    01:00 +19°C° 0 mm 2 mps 689 mmHg 36%
    02:00 +18°C° 0 mm 2 mps 689 mmHg 36%
    03:00 +18°C° 0 mm 2 mps 689 mmHg 38%
    04:00 +18°C° 0 mm 2 mps 690 mmHg 39%
    05:00 +19°C° 0 mm 2 mps 690 mmHg 40%
    06:00 +19°C° 0 mm 3 mps 690 mmHg 40%
    07:00 +21°C° 0 mm 3 mps 691 mmHg 36%
    08:00 +24°C° 0 mm 3 mps 691 mmHg 32%
    09:00 +26°C° 0 mm 3 mps 691 mmHg 28%
    10:00 +27°C° 0 mm 3 mps 691 mmHg 25%
    11:00 +28°C° 0 mm 2 mps 691 mmHg 22%
    12:00 +29°C° 0 mm 2 mps 690 mmHg 19%
    13:00 +29°C° 0 mm 2 mps 690 mmHg 18%
    14:00 +30°C° 0 mm 2 mps 690 mmHg 18%
    15:00 +30°C° 0 mm 1 mps 689 mmHg 17%
    16:00 +30°C° 0 mm 1 mps 689 mmHg 20%
    17:00 +30°C° 0 mm 1 mps 689 mmHg 23%
    18:00 +30°C° 0 mm 1 mps 689 mmHg 26%
    19:00 +27°C° 0 mm 1 mps 689 mmHg 26%
    20:00 +25°C° 0 mm 1 mps 689 mmHg 27%
    21:00 +23°C° 0 mm 2 mps 689 mmHg 27%
    22:00 +21°C° 0 mm 2 mps 689 mmHg 30%
    23:00 +21°C° 0 mm 1 mps 688 mmHg 33%

    Tomorrow, 1 June, Monday

    Time Temperature Precipitation Wind Pressure Humidity
    00:00 +20°C° 0 mm 1 mps 688 mmHg 36%
    01:00 +20°C° 0 mm 1 mps 688 mmHg 37%
    02:00 +19°C° 0 mm 1 mps 688 mmHg 39%
    03:00 +19°C° 0 mm 1 mps 688 mmHg 40%
    04:00 +19°C° 0 mm 1 mps 688 mmHg 42%
    05:00 +20°C° 0 mm 1 mps 688 mmHg 44%
    06:00 +21°C° 0 mm 1 mps 688 mmHg 46%
    07:00 +22°C° 0 mm 1 mps 689 mmHg 41%
    08:00 +24°C° 0 mm 1 mps 689 mmHg 35%
    09:00 +26°C° 0 mm 1 mps 689 mmHg 29%
    10:00 +28°C° 0 mm 1 mps 689 mmHg 27%
    11:00 +29°C° 0 mm 1 mps 689 mmHg 24%
    12:00 +30°C° 0 mm 1 mps 689 mmHg 22%
    13:00 +31°C° 0 mm 1 mps 689 mmHg 21%
    14:00 +31°C° 0 mm 2 mps 688 mmHg 19%
    15:00 +32°C° 0 mm 2 mps 688 mmHg 18%
    16:00 +31°C° 0 mm 3 mps 688 mmHg 21%
    17:00 +30°C° 0 mm 4 mps 688 mmHg 24%
    18:00 +29°C° 0 mm 5 mps 688 mmHg 27%
    19:00 +28°C° 0 mm 4 mps 688 mmHg 28%
    20:00 +26°C° 0 mm 3 mps 688 mmHg 29%
    21:00 +25°C° 0 mm 2 mps 688 mmHg 29%
    22:00 +24°C° 0 mm 2 mps 687 mmHg 32%
    23:00 +21°C° 0 mm 2 mps 687 mmHg 35%

    Day after tomorrow, 2 June, Tuesday

    Time Temperature Precipitation Wind Pressure Humidity
    00:00 +21°C° 0 mm 1 mps 687 mmHg 38%
    01:00 +20°C° 0 mm 1 mps 686 mmHg 39%
    02:00 +20°C° 0 mm 1 mps 686 mmHg 40%
    03:00 +20°C° 0 mm 1 mps 686 mmHg 41%
    04:00 +20°C° 0 mm 1 mps 686 mmHg 42%
    05:00 +21°C° 0 mm 1 mps 686 mmHg 43%
    06:00 +22°C° 0 mm 1 mps 686 mmHg 44%
    07:00 +23°C° 0 mm 1 mps 686 mmHg 39%
    08:00 +25°C° 0 mm 1 mps 686 mmHg 34%
    09:00 +27°C° 0 mm 1 mps 686 mmHg 28%
    10:00 +29°C° 0 mm 1 mps 686 mmHg 26%
    11:00 +30°C° 0 mm 2 mps 687 mmHg 24%
    12:00 +32°C° 0 mm 2 mps 687 mmHg 21%
    13:00 +32°C° 0 mm 2 mps 686 mmHg 21%
    14:00 +34°C° 0 mm 3 mps 686 mmHg 21%
    15:00 +34°C° 0 mm 4 mps 686 mmHg 21%
    16:00 +33°C° 0 mm 3 mps 686 mmHg 24%
    17:00 +31°C° 0 mm 2 mps 686 mmHg 28%
    18:00 +31°C° 0 mm 1 mps 685 mmHg 32%
    19:00 +28°C° 0 mm 2 mps 686 mmHg 33%
    20:00 +26°C° 0 mm 2 mps 686 mmHg 34%
    21:00 +24°C° 0 mm 3 mps 686 mmHg 35%
    22:00 +22°C° 0 mm 3 mps 686 mmHg 35%
    23:00 +21°C° 0 mm 3 mps 686 mmHg 35%

    3 June, Wednesday

    Time Temperature Precipitation Wind Pressure Humidity
    00:00 +21°C° 0 mm 3 mps 686 mmHg 36%
    01:00 +20°C° 0 mm 2 mps 686 mmHg 36%
    02:00 +19°C° 0 mm 2 mps 686 mmHg 37%
    03:00 +18°C° 0 mm 2 mps 686 mmHg 38%
    04:00 +19°C° 0 mm 1 mps 686 mmHg 39%
    05:00 +20°C° 0 mm 1 mps 686 mmHg 40%
    06:00 +21°C° 0 mm 1 mps 687 mmHg 41%
    07:00 +23°C° 0 mm 1 mps 687 mmHg 36%
    08:00 +24°C° 0 mm 1 mps 687 mmHg 31%
    09:00 +24°C° 0 mm 0 mps 687 mmHg 26%
    10:00 +27°C° 0 mm 1 mps 687 mmHg 26%
    11:00 +28°C° 0 mm 2 mps 687 mmHg 26%
    12:00 +29°C° 0 mm 3 mps 687 mmHg 25%
    13:00 +28°C° 0.2 mm 3 mps 687 mmHg 30%
    14:00 +27°C° 0.2 mm 3 mps 687 mmHg 35%
    15:00 +26°C° 0.2 mm 3 mps 686 mmHg 41%
    16:00 +26°C° 0.3 mm 3 mps 686 mmHg 41%
    17:00 +26°C° 0.3 mm 2 mps 686 mmHg 41%
    18:00 +26°C° 0.3 mm 2 mps 686 mmHg 41%
    19:00 +25°C° 0 mm 2 mps 686 mmHg 45%
    20:00 +23°C° 0 mm 2 mps 686 mmHg 50%
    21:00 +20°C° 0 mm 3 mps 686 mmHg 54%
    22:00 +19°C° 0.1 mm 2 mps 687 mmHg 56%
    23:00 +20°C° 0.1 mm 1 mps 687 mmHg 59%

    4 June, Thursday

    Time Temperature Precipitation Wind Pressure Humidity
    00:00 +19°C° 0.1 mm 1 mps 687 mmHg 61%
    01:00 +18°C° 0 mm 1 mps 687 mmHg 61%
    02:00 +16°C° 0 mm 1 mps 687 mmHg 62%
    03:00 +16°C° 0 mm 1 mps 687 mmHg 62%
    04:00 +18°C° 0 mm 1 mps 688 mmHg 59%
    05:00 +19°C° 0 mm 1 mps 688 mmHg 56%
    06:00 +20°C° 0 mm 1 mps 688 mmHg 53%
    07:00 +22°C° 0 mm 1 mps 689 mmHg 46%
    08:00 +24°C° 0 mm 1 mps 689 mmHg 40%
    09:00 +25°C° 0 mm 1 mps 689 mmHg 34%
    10:00 +27°C° 0 mm 1 mps 689 mmHg 30%
    11:00 +28°C° 0 mm 1 mps 689 mmHg 25%
    12:00 +30°C° 0 mm 1 mps 689 mmHg 21%
    13:00 +30°C° 0 mm 1 mps 689 mmHg 20%
    14:00 +31°C° 0 mm 1 mps 688 mmHg 19%
    15:00 +31°C° 0 mm 1 mps 688 mmHg 18%
    16:00 +31°C° 0 mm 2 mps 688 mmHg 20%
    17:00 +31°C° 0 mm 2 mps 688 mmHg 23%
    18:00 +31°C° 0 mm 2 mps 688 mmHg 25%
    19:00 +28°C° 0 mm 3 mps 688 mmHg 25%
    20:00 +26°C° 0 mm 3 mps 689 mmHg 26%
    21:00 +23°C° 0 mm 4 mps 689 mmHg 26%
    22:00 +22°C° 0 mm 3 mps 689 mmHg 28%
    23:00 +20°C° 0 mm 3 mps 689 mmHg 30%

    5 June, Friday

    Time Temperature Precipitation Wind Pressure Humidity
    00:00 +19°C° 0 mm 2 mps 689 mmHg 32%
    01:00 +19°C° 0 mm 2 mps 689 mmHg 33%
    02:00 +19°C° 0 mm 1 mps 689 mmHg 35%
    03:00 +18°C° 0 mm 1 mps 689 mmHg 36%
    04:00 +19°C° 0 mm 1 mps 690 mmHg 38%
    05:00 +20°C° 0 mm 1 mps 690 mmHg 40%
    06:00 +21°C° 0 mm 1 mps 690 mmHg 41%
    07:00 +23°C° 0 mm 1 mps 691 mmHg 36%
    08:00 +25°C° 0 mm 2 mps 691 mmHg 31%
    09:00 +27°C° 0 mm 2 mps 691 mmHg 26%
    10:00 +28°C° 0 mm 1 mps 691 mmHg 23%
    11:00 +29°C° 0 mm 1 mps 691 mmHg 21%
    12:00 +30°C° 0 mm 1 mps 691 mmHg 19%
    13:00 +31°C° 0 mm 1 mps 691 mmHg 18%
    14:00 +31°C° 0 mm 1 mps 691 mmHg 18%
    15:00 +32°C° 0 mm 1 mps 691 mmHg 17%
    16:00 +32°C° 0 mm 2 mps 691 mmHg 19%
    17:00 +31°C° 0 mm 2 mps 691 mmHg 21%
    18:00 +31°C° 0 mm 2 mps 691 mmHg 23%
    19:00 +28°C° 0 mm 2 mps 691 mmHg 26%
    20:00 +25°C° 0 mm 2 mps 691 mmHg 28%
    21:00 +23°C° 0 mm 2 mps 691 mmHg 31%
    22:00 +21°C° 0 mm 2 mps 691 mmHg 35%
    23:00 +20°C° 0 mm 3 mps 691 mmHg 40%
    Show more